TIANMU-1 11

Last updated on Fri Sep 11 2026 00:02:39 GMT+0000 (Coordinated Universal Time)

1 58645U 23205A 26253.54887971 .00003999 00000+0 15009-3 0 9994 2 58645 97.3433 273.8046 0010352 67.6675 292.5661 15.27738939150558
UTC large
Height (km)
Speed (km/s)
/
Latitude / Longitude
Inclination (degrees)
Orbital Period (minutes)
Azimuth
Elevation
Range (km)
Doppler Factor

Next 0 passes for location: London (51.5072 / 0.1276)

No passes found over London.
TIANMU-1 11